Weather History for Findlay, OH

Change the Weather History Date:

Thursday, March 21, 2013

  Actual Average Record
Temperature  
Mean Temperature 24 °F -  
Max Temperature 30 °F 47 °F 84 °F (2012)
Min Temperature 17 °F 30 °F 13 °F (1986)
Degree Days  
Heating Degree Days 42    
Moisture  
Dew Point 15 °F    
Average Humidity 69    
Maximum Humidity 81    
Minimum Humidity 54    
Precipitation  
Precipitation 0.00 in - - ()
Sea Level Pressure  
Sea Level Pressure 29.94 in    
Wind  
Wind Speed 11 mph (West)    
Max Wind Speed 18 mph    
Max Gust Speed 25 mph    
Visibility 9 miles    
Events Snow    
Averages and records for this station are not official NWS values.
T = Trace of Precipitation, MM = Missing Value Source: NWS Daily Summary

Daily Weather History Graph

Daily Weather History Graph

Search for Another Location

Airport:

Trip Planner

Search our weather history database for the weather conditions in past years. The results will help you decide how hot, cold, wet, or windy it might be!

Date:

Astronomy

Mar. 21, 2013 Rise Set
Actual Time 7:35 AM EDT 7:48 PM EDT
Civil Twilight 7:08 AM EDT 8:15 PM EDT
Nautical Twilight 6:36 AM EDT 8:47 PM EDT
Astronomical Twilight 6:03 AM EDT 9:20 PM EDT
Moon 2:14 PM EDT (3/21) 3:59 AM EDT (3/21)
Length of Visible Light 13h 07m
Length of Day
12h 12m
Waxing Gibbous, 68% of the Moon is Illuminated
Mar 21
Waxing Gibbous
Mar 27
Full
Apr 3
Last Quarter
Apr 10
New
Apr 18
First Quarter

Hourly Weather History & Observations

Time (EDT) Temp. Windchill Dew Point Humidity Pressure Visibility Wind Dir Wind Speed Gust Speed Precip Events Conditions
12:53 AM 18.0 °F 8.7 °F 9.0 °F 68% 29.97 in 10.0 mi WNW 6.9 mph - N/A   Clear
2:53 AM 17.1 °F 8.7 °F 10.0 °F 74% 29.96 in 10.0 mi West 5.8 mph - N/A   Clear
3:53 AM 17.1 °F 7.6 °F 10.9 °F 77% 29.94 in 10.0 mi West 6.9 mph - N/A   Clear
4:53 AM 17.1 °F 5.8 °F 10.9 °F 77% 29.93 in 10.0 mi West 9.2 mph - N/A   Scattered Clouds
5:53 AM 17.1 °F 5.8 °F 12.0 °F 81% 29.93 in 10.0 mi West 9.2 mph - N/A   Mostly Cloudy
6:53 AM 17.1 °F 6.6 °F 12.0 °F 81% 29.93 in 10.0 mi West 8.1 mph - N/A   Clear
7:53 AM 18.0 °F 6.1 °F 12.9 °F 81% 29.93 in 10.0 mi West 10.4 mph - N/A   Overcast
8:53 AM 19.0 °F 6.8 °F 14.0 °F 81% 29.94 in 9.0 mi West 11.5 mph - N/A   Overcast
9:43 AM 19.4 °F 5.0 °F 14.0 °F 80% 29.92 in 10.0 mi West 16.1 mph - N/A   Overcast
9:53 AM 21.0 °F 8.1 °F 14.0 °F 74% 29.94 in 10.0 mi West 13.8 mph - N/A   Overcast
10:53 AM 24.1 °F 11.0 °F 15.1 °F 69% 29.94 in 10.0 mi West 16.1 mph - N/A   Mostly Cloudy
11:53 AM 27.0 °F 14.3 °F 16.0 °F 63% 29.94 in 10.0 mi West 17.3 mph 21.9 mph N/A   Overcast
12:53 PM 27.0 °F 15.6 °F 17.1 °F 66% 29.95 in 6.0 mi WNW 13.8 mph 24.2 mph 0.00 in Snow Light Snow
1:05 PM 26.6 °F 14.7 °F 17.6 °F 69% 29.92 in 5.0 mi West 15.0 mph - 0.00 in Snow Light Snow
1:26 PM 28.4 °F 16.6 °F 17.6 °F 64% 29.92 in 6.0 mi West 16.1 mph 23.0 mph 0.00 in Snow Light Snow
1:35 PM 28.4 °F 16.6 °F 17.6 °F 64% 29.92 in 5.0 mi West 16.1 mph - 0.00 in Snow Light Snow
1:53 PM 28.0 °F 16.5 °F 16.0 °F 61% 29.94 in 10.0 mi West 15.0 mph - 0.00 in   Overcast
2:50 PM 28.4 °F 15.8 °F 19.4 °F 69% 29.91 in 6.0 mi West 18.4 mph 25.3 mph 0.00 in Snow Light Snow
2:53 PM 28.9 °F 16.9 °F 19.0 °F 67% 29.94 in 6.0 mi West 17.3 mph - 0.00 in Snow Light Snow
3:12 PM 28.4 °F 17.5 °F 19.4 °F 69% 29.91 in 9.0 mi West 13.8 mph - 0.00 in   Overcast
3:53 PM 30.0 °F 19.5 °F 18.0 °F 61% 29.94 in 8.0 mi West 13.8 mph 21.9 mph 0.00 in Snow Light Snow
4:53 PM 30.0 °F 18.7 °F 18.0 °F 61% 29.94 in 10.0 mi West 16.1 mph - 0.00 in   Overcast
5:53 PM 30.9 °F 19.4 °F 16.0 °F 54% 29.94 in 10.0 mi WNW 17.3 mph 23.0 mph N/A   Overcast
6:53 PM 30.0 °F 19.1 °F 17.1 °F 59% 29.94 in 10.0 mi West 15.0 mph - N/A   Overcast
7:53 PM 28.9 °F 19.2 °F 16.0 °F 58% 29.96 in 10.0 mi WNW 11.5 mph - N/A   Overcast
8:53 PM 28.9 °F 19.8 °F 16.0 °F 58% 29.96 in 10.0 mi WNW 10.4 mph - N/A   Overcast
9:53 PM 27.0 °F 18.7 °F 17.1 °F 66% 29.97 in 10.0 mi WNW 8.1 mph - N/A   Partly Cloudy
10:53 PM 24.1 °F 16.0 °F 17.1 °F 75% 29.98 in 10.0 mi WNW 6.9 mph - N/A   Clear
11:53 PM 24.1 °F 15.2 °F 16.0 °F 71% 29.99 in 10.0 mi WNW 8.1 mph - N/A   Clear